Regional Weather Roundup
Issued by NWS

Home | Current Version | Previous Version | Graphics & Text | Print | Product List | Glossary On
Versions: 1 2 3 4 5 6 7 8 9 10 11 12 13 14 15 16 17 18 19 20 21 22 23 24 25 26 27 28 29 30 31 32 33 34 35 36 37 38 39 40 41 42 43 44 45 46 47 48 49 50
000
ASUS43 KDMX 292007
RWRIA

WEATHER ROUNDUP FOR IOWA
NATIONAL WEATHER SERVICE DES MOINES IA
300 PM CDT FRI AUG 29 2014

NOTE: "FAIR" INDICATES FEW OR NO CLOUDS BELOW 12,000 FEET WITH NO
SIGNIFICANT WEATHER AND/OR OBSTRUCTIONS TO VISIBILITY.

* - THESE STATIONS ARE NOT NWS STATIONS...THUS NOT UNDER NWS
QUALITY CONTROL.  THEY ALSO DO NOT REPORT WEATHER SUCH
AS PRECIPITATION OR FOG.

IAZ001>003-012>014-020>022-031>034-043>046-292100-
   NORTHWEST IOWA

CITY           SKY/WX    TMP DP  RH WIND       PRES   REMARKS
CARROLL *      CLOUDY    75  70  83 SW8       29.79F
CHEROKEE *     CLOUDY    70  68  94 NE6       29.78F
DENISON *      PTSUNNY   75  70  83 VRB5      29.78F
LE MARS *      MOSUNNY   72  68  88 CALM      29.78F
ORANGE CITY *  LGT RAIN  72  66  83 CALM      29.79F
SHELDON *      RAIN      68  68 100 S6        29.79F
SIOUX CITY     CLOUDY    74  67  78 CALM      29.78F
SPENCER        HVY RAIN  71  69  93 SW17G24   29.81S FOG
STORM LAKE *   PTSUNNY   72  70  94 W9        29.80F
$$

IAZ055>058-069>071-079>083-090>094-292100-
   SOUTHWEST IOWA

CITY           SKY/WX    TMP DP  RH WIND       PRES   REMARKS
ATLANTIC *     CLOUDY    73  68  83 S10       29.80F
AUDUBON *      SUNNY     75  72  88 S6        29.82S
CLARINDA *     PTSUNNY   73  70  88 S7        29.82F
COUNCIL BLFS * PTSUNNY   73  72  94 S10       29.78F
CRESTON *      LGT RAIN  73  68  83 S10       29.84R
HARLAN  *      CLOUDY    73  70  88 S8        29.83S
RED OAK *      PTSUNNY   73  70  88 SW9       29.81F
SHENANDOAH *   PTSUNNY   77  72  83 VRB7      29.80F
$$

IAZ047>049-059>061-072>074-084-292100-
   CENTRAL IOWA

CITY           SKY/WX    TMP DP  RH WIND       PRES   REMARKS
AMES           PTSUNNY   81  72  74 SW6       29.78F HX  85
ANKENY *       SUNNY     82  70  65 S6        29.78F HX  86
CHARITON *     PTSUNNY   77  70  78 SW7       29.80F
DES MOINES     CLOUDY    82  69  64 S8        29.78F HX  85
GRINNELL*      MOSUNNY   84  70  61 S12       29.80F HX  88
KNOXVILLE *    PTSUNNY   79  72  78 SW5       29.78F HX  82
MARSHALLTOWN   PTSUNNY   84  71  65 S14       29.78F HX  89
PELLA *        PTSUNNY   84  72  65 S8        29.79F HX  89
PERRY *        PTSUNNY   79  68  69 W6        29.79F HX  81
$$

IAZ004>006-015-016-023>025-035-036-292100-
   NORTH CENTRAL IOWA

CITY           SKY/WX    TMP DP  RH WIND       PRES   REMARKS
ALGONA *       SUNNY     77  70  78 W8        29.80F
CLARION *      PTSUNNY   79  72  78 SW10      29.79F HX  82
ESTHERVILLE    CLOUDY    73  69  87 SW10      29.79F
FORT DODGE *   CLOUDY    79  70  73 SW7       29.80F HX  81
MASON CITY     CLOUDY    80  70  71 SW12      29.80F HX  83
FOREST CITY *  CLOUDY    79  72  78 SW8       29.79F HX  82
IOWA FALLS *   PTSUNNY   82  72  69 SW10      29.80F HX  87
$$

IAZ007>011-017>019-026>030-037>042-050>054-066-292100-
   NORTHEAST IOWA

CITY           SKY/WX    TMP DP  RH WIND       PRES   REMARKS
CEDAR RAPIDS   MOSUNNY   85  71  63 S12       29.81F HX  90
CHARLES CITY * MOSUNNY   84  70  61 SW15G24   29.78F HX  88
CLINTON *      SUNNY     86  73  66 S12       29.87F HX  93
DECORAH *      MOSUNNY   84  70  61 S14G20    29.79F HX  88
DUBUQUE        SUNNY     84  71  65 S14       29.84F HX  89
MONTICELLO *   SUNNY     88  72  58 S10G20    29.82F HX  94
OELWEIN *      MOSUNNY   86  72  62 S14G22    29.80F HX  92
WATERLOO       MOSUNNY   87  69  54 S14       29.77F HX  91
$$

IAZ064-065-067-068-078-292100-
   EAST CENTRAL IOWA

CITY           SKY/WX    TMP DP  RH WIND       PRES   REMARKS
DAVENPORT      SUNNY     85  71  63 S10       29.85F HX  90
IOWA CITY      SUNNY     86  72  62 S14       29.82F HX  92
MT. PLEASANT * MOSUNNY   88  68  51 S9        29.83F HX  91
MUSCATINE *    MOSUNNY   88  70  55 S13       29.82F HX  92
QUAD CITIES    SUNNY     87  72  60 S12       29.84F HX  93
$$

IAZ062-063-075>077-085>089-095>099-292100-
   SOUTHEAST IOWA

CITY           SKY/WX    TMP DP  RH WIND       PRES   REMARKS
BURLINGTON     SUNNY     87  69  54 S13       29.84F HX  91
FAIRFIELD *    MOSUNNY   86  70  58 S10G18    29.82F HX  90
FORT MADISON * SUNNY     88  66  48 S8        29.84F HX  90
KEOKUK *       MOSUNNY   88  70  55 S10       29.83F HX  92
OSKALOOSA *      N/A     84  70  61 S13       29.80F HX  88
CENTERVILLE *  LGT RAIN  77  73  88 SW33G44   29.84R
OTTUMWA        MOSUNNY   83  70  64 S7        29.80S HX  87
WASHINGTON *   SUNNY     86  73  66 S12       29.82F HX  93
$$

ABBREVIATIONS USED IN REMARKS
   TC - TEMPERATURES IN CELSIUS
  WCI - WIND CHILL INDEX
   HX - HEAT INDEX
  VSB - VISIBILITY
$$




USA.gov is the U.S. government's official web portal to all federal, state and local government web resources and services.